TimeCST,TemperatureF,Dew PointF,Humidity,Sea Level PressureIn,VisibilityMPH,Wind Direction,Wind SpeedMPH,Gust SpeedMPH,PrecipitationIn,Events,Conditions,WindDirDegrees,DateUTC
12:15 AM,60.4,44.1,55,30.08,10.0,NNE,6.9,-,N/A,,Clear,30,2013-11-19 06:15:00
12:35 AM,60.1,43.9,55,30.08,10.0,NE,8.1,-,N/A,,Clear,40,2013-11-19 06:35:00
12:55 AM,59.2,44.2,58,30.07,10.0,NE,6.9,-,N/A,,Clear,40,2013-11-19 06:55:00
1:15 AM,59.2,43.9,57,30.09,7.0,North,4.6,-,N/A,,Mostly Cloudy,10,2013-11-19 07:15:00
1:35 AM,59.4,43.2,55,30.08,10.0,NNE,8.1,-,N/A,,Overcast,20,2013-11-19 07:35:00
1:55 AM,59.0,42.8,55,30.08,10.0,NNE,10.4,-,N/A,,Overcast,30,2013-11-19 07:55:00
2:15 AM,58.5,42.6,56,30.07,10.0,NNE,9.2,-,N/A,,Scattered Clouds,30,2013-11-19 08:15:00
2:35 AM,58.1,42.8,57,30.07,10.0,NNE,9.2,-,N/A,,Scattered Clouds,30,2013-11-19 08:35:00
2:55 AM,57.9,42.8,57,30.08,10.0,NNE,8.1,-,N/A,,Mostly Cloudy,30,2013-11-19 08:55:00
3:15 AM,57.7,42.8,57,30.08,10.0,NNE,9.2,-,N/A,,Overcast,30,2013-11-19 09:15:00
3:35 AM,57.4,43.0,59,30.08,7.0,NNE,11.5,-,N/A,,Overcast,20,2013-11-19 09:35:00
3:55 AM,57.6,42.6,57,30.08,7.0,NNE,11.5,16.1,N/A,,Overcast,30,2013-11-19 09:55:00
4:15 AM,57.7,42.4,57,30.09,7.0,NE,13.8,17.3,N/A,,Overcast,40,2013-11-19 10:15:00
4:35 AM,57.6,42.1,56,30.08,10.0,NNE,10.4,16.1,N/A,,Overcast,30,2013-11-19 10:35:00
4:55 AM,57.6,41.5,55,30.09,10.0,NE,11.5,18.4,N/A,,Overcast,40,2013-11-19 10:55:00
5:48 AM,57.2,41.0,55,30.12,7.0,NNE,11.5,-,N/A,,Overcast,30,2013-11-19 11:48:00
6:50 AM,57.2,39.2,51,30.13,7.0,NNE,17.3,-,N/A,,Overcast,30,2013-11-19 12:50:00
7:50 AM,57.2,39.2,51,-9999,7.0,NNE,11.5,-,N/A,,Mostly Cloudy,20,2013-11-19 13:50:00
8:50 AM,57.2,39.2,51,30.14,7.0,NNE,11.5,-,N/A,,Mostly Cloudy,30,2013-11-19 14:50:00
9:48 AM,60.8,39.2,45,30.15,7.0,NE,16.1,-,N/A,,Mostly Cloudy,40,2013-11-19 15:48:00
10:52 AM,60.8,37.4,42,30.15,7.0,NE,11.5,-,N/A,,Mostly Cloudy,40,2013-11-19 16:52:00
11:52 AM,59.0,39.2,48,30.12,7.0,North,16.1,-,N/A,,Overcast,350,2013-11-19 17:52:00
12:50 PM,59.0,37.4,45,30.09,7.0,NNE,16.1,-,N/A,,Overcast,20,2013-11-19 18:50:00
1:50 PM,62.6,37.4,39,30.07,7.0,NNE,11.5,-,N/A,,Overcast,20,2013-11-19 19:50:00
2:50 PM,60.8,37.4,42,30.05,7.0,North,9.2,-,N/A,,Mostly Cloudy,10,2013-11-19 20:50:00
5:50 PM,51.8,46.4,82,30.08,7.0,North,3.5,-,N/A,,Clear,10,2013-11-19 23:50:00
6:15 PM,50.0,46.4,87,30.07,10.0,NE,3.5,-,N/A,,Clear,50,2013-11-20 00:15:00
6:35 PM,51.1,46.0,83,30.07,10.0,Calm,Calm,-,N/A,,Mostly Cloudy,0,2013-11-20 00:35:00
6:50 PM,51.8,46.4,82,30.08,7.0,North,3.5,-,N/A,,Clear,10,2013-11-20 00:50:00
6:55 PM,53.8,46.0,75,30.08,10.0,Calm,Calm,-,N/A,,Overcast,0,2013-11-20 00:55:00
7:15 PM,55.4,44.6,67,30.08,10.0,Calm,Calm,-,N/A,,Overcast,0,2013-11-20 01:15:00
7:35 PM,55.4,42.3,61,30.09,10.0,NNE,4.6,-,N/A,,Overcast,20,2013-11-20 01:35:00
7:55 PM,56.5,40.5,55,30.09,10.0,NNE,6.9,-,N/A,,Overcast,30,2013-11-20 01:55:00
8:15 PM,56.8,40.3,54,30.09,10.0,NNE,4.6,-,N/A,,Overcast,30,2013-11-20 02:15:00
8:35 PM,56.8,39.0,51,30.10,10.0,NE,5.8,-,N/A,,Overcast,40,2013-11-20 02:35:00
8:55 PM,56.7,39.4,52,30.10,10.0,NE,4.6,-,N/A,,Overcast,50,2013-11-20 02:55:00
9:15 PM,56.5,39.9,54,30.10,10.0,ENE,5.8,-,N/A,,Overcast,60,2013-11-20 03:15:00
9:35 PM,56.3,38.8,52,30.10,10.0,NE,5.8,-,N/A,,Overcast,40,2013-11-20 03:35:00
9:55 PM,54.0,39.6,58,30.10,10.0,NNE,5.8,-,N/A,,Scattered Clouds,30,2013-11-20 03:55:00
10:15 PM,53.8,38.5,56,30.09,10.0,NE,5.8,-,N/A,,Clear,40,2013-11-20 04:15:00
10:35 PM,52.7,38.8,59,30.08,10.0,NNE,8.1,-,N/A,,Clear,30,2013-11-20 04:35:00
10:55 PM,52.5,38.3,58,30.08,10.0,NNE,4.6,-,N/A,,Clear,30,2013-11-20 04:55:00
11:15 PM,51.6,38.7,61,30.08,10.0,NNE,3.5,-,N/A,,Clear,30,2013-11-20 05:15:00
11:35 PM,50.2,39.2,66,30.07,10.0,NE,5.8,-,N/A,,Clear,40,2013-11-20 05:35:00
11:55 PM,50.2,38.8,65,30.07,10.0,NNE,4.6,-,N/A,,Clear,30,2013-11-20 05:55:00